Theta_e
313 314 314 314 314 314 314 314 315 315 316 317 318 318 318 318 317 308 301 308 312 323 323 309 304 304 303 303 304 309 300 298 301 303 305 310 306 312 314 310 311 311 312 324 327
312 313 313 313 313 313 314 314 314 315 316 317 317 317 317 318 308 303 311 325 325 325 306 302 300 304 297 300 301 299 295 301 307 308 306 309 310 311 311 310 310 311 315 317 322
313 313 313 313 313 313 313 313 314 315 315 316 316 316 317 317 303 306 322 326 327 325 309 304 304 302 295 297 298 297 296 303 306 308 309 308 308 312 310 306 310 309 311 315 314
313 314 314 314 313 313 313 313 314 314 315 315 315 316 317 312 293 308 327 329 329 316 307 304 300 293 292 293 298 293 298 302 304 307 306 305 309 307 309 309 314 315 314 313 313
313 313 313 313 313 313 313 313 313 313 314 314 315 316 311 304 304 313 331 330 323 313 307 303 297 292 289 293 295 293 296 299 302 303 306 308 306 307 307 312 315 316 316 314 313
312 312 312 312 312 312 312 312 312 313 313 315 317 317 308 300 311 312 321 318 314 308 306 303 297 298 293 291 291 295 295 295 297 299 300 300 302 304 306 312 313 314 314 314 314
312 312 312 311 311 311 312 312 312 312 313 315 318 314 304 298 312 305 313 308 308 308 302 302 301 298 295 293 294 295 291 293 294 296 298 301 298 299 305 307 308 311 313 314 314
313 312 313 312 311 311 312 313 312 313 314 315 318 309 298 313 310 303 303 303 305 306 303 302 302 297 293 294 294 290 287 283 292 296 298 299 293 301 304 304 305 307 310 312 313
313 313 313 312 311 311 311 311 312 314 316 316 308 303 301 314 304 305 302 302 303 304 303 306 300 295 294 289 285 286 282 284 288 294 295 295 292 298 302 303 303 305 306 309 311
313 313 312 312 311 311 310 311 312 313 313 314 312 300 304 303 305 306 305 304 302 301 299 298 294 290 287 286 280 284 284 287 286 292 293 292 292 295 298 299 299 301 303 306 310
313 313 312 312 312 311 307 302 297 298 303 301 305 303 307 306 307 303 305 303 302 296 289 293 287 285 288 289 291 290 288 287 290 294 291 290 291 294 296 296 296 297 300 302 305
313 312 312 312 311 311 303 299 301 300 293 303 303 304 307 305 298 302 306 297 295 289 291 288 284 291 294 292 290 289 286 285 290 294 292 290 290 294 295 295 296 296 298 299 302
312 312 312 311 310 305 301 305 306 302 291 298 302 301 301 301 298 299 301 297 292 288 288 285 289 295 293 290 289 288 287 288 288 292 292 290 288 290 294 296 297 297 298 300 301
311 311 311 310 305 301 302 308 304 302 287 295 296 299 300 299 296 303 303 297 292 288 289 288 292 292 290 290 292 286 293 292 291 287 280 289 280 288 291 292 294 296 295 296 299
310 310 309 309 299 297 304 307 304 302 278 298 296 303 299 295 298 300 303 297 290 290 289 287 289 288 288 292 294 289 294 291 290 286 282 285 280 286 291 290 293 295 297 298 298
309 309 308 304 301 302 306 304 304 290 281 292 297 295 293 296 297 299 298 299 297 291 290 289 293 293 292 295 294 296 290 288 287 284 277 283 282 283 286 289 293 296 299 301 301
308 308 306 307 298 304 304 300 287 282 296 290 290 293 292 291 294 295 293 290 286 283 283 288 288 294 297 290 292 289 282 276 275 275 276 285 283 284 290 293 296 297 299 300 301
307 306 305 307 303 304 300 292 282 292 289 294 292 292 289 293 293 295 291 287 293 289 282 279 278 289 297 290 286 284 284 276 272 275 277 286 280 284 295 298 299 299 299 300 300
305 301 304 307 308 304 294 284 286 289 292 291 292 288 290 293 292 291 289 290 293 292 283 282 283 293 294 293 290 285 282 286 280 281 278 281 286 290 295 296 297 297 298 298 299
296 299 302 309 308 300 289 288 292 296 295 293 286 290 286 289 289 289 288 294 294 295 291 288 281 291 293 294 292 287 289 279 279 275 274 279 281 282 290 292 294 294 295 297 299
298 297 305 306 304 295 286 290 294 298 297 293 290 289 290 289 290 288 289 292 296 294 294 289 284 285 290 286 284 285 283 285 284 283 277 277 280 291 292 292 292 293 295 296 298
294 292 305 302 290 290 289 295 296 295 297 295 293 291 290 291 289 289 288 292 296 296 289 291 285 281 285 291 293 290 286 284 275 275 283 282 279 294 294 293 294 294 297 298 300
292 294 304 301 284 284 290 293 295 295 295 293 291 294 292 288 285 291 291 296 295 294 291 290 282 279 280 284 288 286 289 288 286 285 280 278 280 292 296 295 296 294 296 299 301
293 289 293 294 292 287 287 289 291 299 296 295 293 293 290 289 290 288 289 294 294 295 301 297 286 282 279 281 285 284 288 289 286 281 281 282 284 289 291 294 295 295 298 299 300
291 287 289 283 286 287 288 291 290 291 293 292 289 290 287 284 287 286 288 290 294 296 294 290 282 285 287 289 290 289 288 289 286 286 282 284 285 290 291 293 295 297 298 299 300
289 287 289 287 289 288 289 287 289 291 291 289 287 290 288 284 286 284 287 286 287 291 288 289 283 288 285 289 289 287 289 290 289 289 288 289 288 295 295 295 296 297 299 300 301
293 293 290 287 286 284 284 287 288 290 291 293 290 287 287 289 293 292 291 291 290 288 287 285 284 285 281 287 286 282 288 289 289 291 289 284 289 294 293 295 296 297 301 301 303
Wind_Speed
17 17 17 17 17 17 16 17 17 16 15 16 16 15 16 16 15 4 6 11 8 9 4 6 5 5 2 4 3 1 3 8 9 10 11 14 6 11 5 4 5 7 7 4 11
16 16 17 17 18 18 17 17 17 17 16 15 15 15 15 14 4 7 13 11 10 5 3 3 3 1 3 5 3 5 5 10 7 10 13 15 15 18 17 13 10 7 11 11 11
18 17 17 17 18 17 18 17 17 17 16 15 15 15 15 9 4 6 10 14 10 7 4 1 3 2 5 4 5 5 13 7 11 7 9 15 23 16 15 14 13 8 7 6 6
20 20 19 19 18 18 18 18 18 17 17 16 15 15 15 1 2 5 11 13 8 4 2 2 2 1 3 6 5 9 10 6 12 14 14 19 21 22 19 21 15 13 3 6 5
21 21 21 21 21 20 18 18 18 18 17 16 14 11 4 1 9 8 14 9 5 5 4 3 2 3 4 4 4 7 10 8 11 13 15 16 23 24 22 19 15 19 7 4 8
21 22 22 23 23 22 21 18 17 17 16 15 12 7 1 4 5 8 10 5 7 5 4 7 5 4 2 2 2 4 5 7 6 10 7 13 19 16 27 14 16 15 15 2 6
22 22 21 24 24 23 22 19 17 17 15 13 9 3 3 12 3 2 7 7 7 8 4 4 4 4 2 8 3 5 7 8 5 4 5 7 16 21 16 14 17 14 14 13 8
20 21 22 24 24 24 23 22 20 19 15 12 5 2 7 7 5 5 5 7 5 8 4 6 4 3 3 3 7 4 2 3 2 5 5 7 26 21 9 10 15 11 11 15 10
22 22 23 25 25 24 23 22 23 18 12 8 2 3 9 10 3 4 2 3 7 4 5 7 6 4 1 3 6 4 4 5 7 4 5 6 20 6 9 10 16 17 14 13 18
23 23 23 23 24 23 23 21 14 7 4 5 5 2 6 2 4 3 2 4 2 5 6 2 2 3 3 4 4 6 4 5 4 5 3 11 15 6 7 9 8 9 11 15 16
25 24 24 24 22 21 12 5 6 4 2 6 5 5 8 5 1 2 3 1 3 5 3 4 4 5 12 8 9 7 5 4 4 6 5 11 17 12 7 7 8 9 12 12 15
26 26 26 25 23 16 1 1 4 6 8 9 13 14 17 9 1 6 2 2 3 4 5 7 2 3 4 4 3 4 3 5 4 7 10 12 25 17 7 8 8 9 12 10 12
26 26 27 28 27 2 3 6 6 6 3 8 6 6 8 8 5 7 4 3 3 2 4 3 8 6 5 5 6 4 4 6 6 8 3 7 18 15 13 6 7 7 8 9 10
26 27 26 29 3 4 4 8 3 5 4 5 4 4 5 5 4 8 7 6 1 4 5 5 5 3 7 1 3 2 6 8 12 8 4 1 16 15 12 12 7 10 8 10 11
26 27 25 17 5 3 6 11 2 6 4 6 3 3 4 5 2 3 8 3 6 7 2 8 5 5 5 2 2 5 4 6 7 9 3 3 6 16 13 18 16 14 13 13 10
27 27 22 1 1 8 9 9 5 4 2 3 3 2 2 4 8 3 6 3 4 5 5 10 2 2 3 2 2 1 2 5 3 0 4 4 7 27 7 13 14 10 12 13 14
30 28 14 3 4 5 7 5 5 5 9 6 6 6 6 5 5 5 6 5 4 2 2 3 5 2 2 1 3 5 5 5 6 3 6 4 7 17 15 13 2 6 10 12 9
32 23 3 4 6 5 4 5 7 10 13 7 8 9 3 12 5 7 4 4 11 3 2 4 7 4 0 2 4 4 7 5 5 5 12 13 9 8 4 2 6 5 7 10 10
23 5 3 5 5 3 6 6 1 5 7 8 7 5 6 13 8 7 6 6 4 6 2 3 3 6 6 3 4 3 4 9 4 5 4 7 7 8 6 5 9 7 8 12 15
3 4 4 5 2 6 6 2 4 7 7 3 2 1 7 11 6 7 5 5 3 7 2 4 5 6 1 5 5 5 4 2 3 4 6 5 8 7 8 11 10 11 12 15 15
3 4 5 3 5 6 3 4 5 10 9 0 2 5 6 5 6 5 3 8 3 2 6 1 3 4 4 4 5 5 1 3 3 4 4 5 6 6 11 13 9 9 11 13 18
4 3 4 5 5 1 1 5 7 8 5 3 3 4 2 2 3 5 4 5 9 2 1 1 1 4 8 15 11 5 5 4 5 6 5 4 13 14 17 8 9 11 12 16 15
3 3 4 6 3 3 6 5 3 7 11 3 4 1 3 2 4 3 6 6 5 3 4 3 2 5 7 5 6 2 4 6 4 3 8 6 11 7 5 9 14 11 12 15 14
2 5 6 5 1 1 5 5 5 6 2 5 3 6 6 4 4 5 5 4 9 6 9 9 4 8 9 10 6 14 17 17 11 8 10 13 21 20 14 11 12 9 13 11 13
4 2 0 5 4 6 3 4 8 6 4 2 4 0 1 4 6 5 4 12 10 9 1 5 6 6 11 17 18 21 22 20 18 16 13 16 10 13 8 10 16 12 12 10 14
3 4 4 4 5 6 5 4 5 12 4 4 2 8 6 5 8 15 13 5 9 7 6 3 5 3 17 17 17 18 15 18 17 16 8 7 12 3 10 9 6 11 12 17 15
4 3 4 5 5 3 2 4 10 7 6 11 7 5 5 6 12 12 12 12 11 9 10 5 5 2 11 6 13 7 3 4 5 5 4 6 5 10 14 15 14 15 17 13 14
Wind_Direction
345 342 340 337 334 330 327 324 321 319 319 319 322 323 322 320 316 299 241 223 192 238 313 273 260 252 246 229 219 303 186 223 222 233 249 299 299 294 267 286 324 345 344 292 151
343 340 338 336 333 329 325 322 320 318 317 319 322 321 319 320 305 242 241 233 214 202 247 249 257 355 235 211 232 180 202 222 240 246 287 299 293 301 313 322 323 347 358 27 40
341 338 336 333 330 327 323 320 318 317 318 320 321 317 316 325 316 253 208 223 211 198 226 261 286 239 198 227 213 226 240 237 262 264 279 286 291 305 308 302 294 314 327 347 59
341 339 336 333 329 326 322 320 319 317 317 319 320 314 313 210 125 246 206 208 207 193 233 240 227 191 216 222 215 257 264 261 266 261 264 273 286 284 286 276 282 285 253 300 346
340 339 337 335 330 326 321 320 318 316 316 317 319 313 347 287 252 244 206 211 197 183 209 192 228 194 200 238 282 257 270 255 263 267 256 260 267 274 278 276 286 288 283 251 287
339 337 335 332 329 325 321 317 313 311 311 310 309 309 194 274 236 207 198 162 223 188 247 159 233 239 189 219 197 302 285 267 264 279 278 268 270 276 272 281 276 283 293 212 244
339 336 332 329 326 323 318 314 309 304 303 303 304 247 249 239 243 332 151 209 214 204 232 273 159 75 29 329 333 300 303 314 290 251 270 278 281 260 275 289 269 270 276 281 220
333 328 325 326 326 321 317 311 302 296 292 289 273 259 251 252 267 268 198 331 153 216 205 252 228 152 159 290 342 326 346 325 328 346 267 170 264 265 276 286 287 280 278 274 240
332 328 325 327 327 324 318 306 296 289 272 250 205 182 271 309 219 235 124 278 294 287 278 258 108 186 6 50 353 339 260 274 317 253 254 199 270 324 309 275 271 275 275 276 280
332 329 326 325 327 326 319 299 287 293 201 188 250 321 283 257 173 226 251 217 272 308 322 175 103 125 21 95 229 255 270 299 286 311 22 288 288 273 309 306 301 299 293 280 264
331 328 326 325 326 329 336 358 14 6 82 216 209 256 302 305 140 280 301 96 23 35 341 297 91 194 235 211 234 259 264 266 275 289 327 286 292 292 291 301 313 306 304 305 293
330 328 328 326 324 321 209 341 228 201 303 242 240 251 257 268 255 282 191 111 33 302 345 7 277 270 273 320 317 323 323 312 265 342 337 304 286 284 270 270 257 267 280 282 294
330 329 330 327 322 75 208 238 314 84 3 298 218 215 226 159 203 247 154 167 226 309 319 183 254 291 316 308 12 5 54 333 310 332 280 340 294 307 307 265 293 287 273 284 280
331 328 332 330 0 348 261 296 226 92 57 272 170 231 147 144 254 217 189 156 170 239 269 258 262 319 319 32 92 347 352 330 320 341 277 51 287 286 286 293 281 292 294 279 285
329 328 331 322 288 334 292 317 7 59 54 179 166 232 182 170 254 213 166 109 193 209 142 253 251 302 307 208 113 227 330 297 300 285 274 248 276 277 314 290 292 291 283 278 263
328 324 330 235 234 240 304 299 57 36 9 143 86 313 40 244 257 192 188 198 205 204 202 237 200 149 178 227 178 252 331 319 322 48 269 190 207 279 269 272 274 319 347 342 339
328 320 318 251 240 320 329 33 48 70 331 20 12 341 318 268 297 208 191 239 216 0 308 333 256 158 160 175 346 82 52 332 339 350 237 345 309 262 284 280 91 295 309 313 306
327 320 224 222 265 357 39 55 64 356 17 31 351 314 287 12 8 336 326 305 39 63 161 136 335 39 207 248 245 221 161 161 260 275 288 302 257 250 110 124 229 244 276 296 300
327 335 311 264 242 74 63 58 176 4 352 354 340 329 356 11 345 10 15 38 57 56 54 343 268 329 331 55 98 258 176 209 226 276 248 238 288 291 322 329 324 304 310 312 310
338 340 282 280 105 56 68 280 350 325 339 351 349 12 330 340 14 14 311 57 41 58 115 329 297 225 287 338 273 181 243 301 357 302 261 259 255 250 307 298 285 312 323 309 300
38 33 264 55 61 48 105 254 308 338 346 346 277 286 320 12 334 330 295 322 68 80 84 19 163 275 0 237 265 332 357 89 103 189 258 296 262 222 250 255 285 298 292 288 291
351 44 289 55 46 15 342 312 325 321 356 330 358 35 120 258 278 296 263 274 357 150 48 239 209 276 246 270 267 180 181 148 133 258 227 268 261 254 253 267 269 265 276 285 282
350 271 330 80 74 330 305 309 275 342 333 360 278 3 86 285 302 248 289 317 345 357 178 186 298 320 325 4 359 168 202 198 209 202 229 250 274 265 263 255 250 264 285 279 286
13 2 330 33 113 107 1 283 308 319 29 43 8 10 7 319 320 282 298 307 313 325 260 152 204 190 247 254 245 278 272 266 242 237 265 250 282 294 286 254 259 274 269 268 298
31 337 223 309 323 327 233 266 317 350 8 50 325 337 317 292 310 250 314 318 314 294 85 155 217 218 247 263 270 272 277 273 272 257 248 273 249 283 283 283 257 245 280 310 303
67 27 347 286 296 312 335 353 328 342 307 297 253 269 263 227 222 278 270 242 239 283 258 180 252 286 287 269 270 287 293 272 260 276 261 294 272 329 301 290 286 267 304 306 314
324 352 101 291 319 341 216 346 310 338 297 336 321 300 267 291 296 269 238 242 234 230 262 206 203 246 270 327 311 282 254 34 343 301 215 263 270 330 325 325 318 325 329 358 344